GPS BIIR-13 (PRN 02)

Last updated on Sun Dec 07 2025 00:03:18 GMT+0000 (Coordinated Universal Time)

1 28474U 04045A 25339.84735968 -.00000077 00000+0 00000+0 0 9993 2 28474 55.2441 332.6831 0170622 308.9503 46.5475 2.00569010154543
UTC large
Height (km)
Speed (km/s)
/
Latitude / Longitude
Inclination (degrees)
Orbital Period (minutes)
Azimuth
Elevation
Range (km)
Doppler Factor

Next 0 passes for location: London (51.5072 / 0.1276)

Sorry there are no passes over London.